CW4629 Weather Reports


time (UTC)temp
F
wind
direction
speed
knots
gust
knots
rain 1hr
in
rain 24hr
in
rain mn
in
humidity
%
barometer
mb
20260906024020 87 202 0.9 1.7 0.00 0.00 0.00 17 1015.2
20260906023021 88 225 1.7 2.6 0.00 0.00 0.00 18 1015.2
20260906022020 89 225 0.9 2.6 0.00 0.00 0.00 17 1014.9
20260906021020 89 225 3.5 5.2 0.00 0.00 0.00 16 1014.9
20260906020038 90 239 4.3 7.0 0.00 0.00 0.00 16 1014.9
20260906015118 91 243 4.3 6.1 0.00 0.00 0.00 16 1014.9
20260906014118 91 247 2.6 7.0 0.00 0.00 0.00 15 1014.9
20260906013135 92 226 4.3 7.8 0.00 0.00 0.00 16 1014.9
20260906012219 92 230 5.2 7.8 0.00 0.00 0.00 16 1014.9
20260906011218 93 237 7.0 11.3 0.00 0.00 0.00 16 1014.9
20260906010218 93 209 5.2 8.7 0.00 0.00 0.00 15 1014.9
20260906005235 93 237 7.8 10.4 0.00 0.00 0.00 14 1014.9
20260906004220 93 240 7.0 8.7 0.00 0.00 0.00 14 1014.7
20260906003234 94 231 9.6 12.2 0.00 0.00 0.00 14 1014.7
20260906000219 95 227 7.0 9.6 0.00 0.00 0.00 15 1014.6
20260905235219 94 238 7.0 11.3 0.00 0.00 0.00 15 1014.6
20260905234219 94 230 8.7 12.2 0.00 0.00 0.00 14 1014.6
20260905233218 94 234 10.4 17.4 0.00 0.00 0.00 15 1014.7
20260905232219 95 246 8.7 12.2 0.00 0.00 0.00 15 1014.8
20260905231220 94 201 7.0 13.9 0.00 0.00 0.00 15 1014.9
20260905230237 95 231 13.0 21.7 0.00 0.00 0.00 16 1014.9
20260905225335 95 244 8.7 17.4 0.00 0.00 0.00 15 1014.7
20260905224336 96 238 5.2 8.7 0.00 0.00 0.00 15 1015.0
20260905223320 95 228 11.3 16.5 0.00 0.00 0.00 15 1014.9
20260905222335 95 228 7.8 13.0 0.00 0.00 0.00 16 1015.4
20260905221420 95 237 7.8 14.8 0.00 0.00 0.00 16 1015.3
20260905215520 95 240 9.6 14.8 0.00 0.00 0.00 16 1015.6
20260905214618 95 250 6.1 8.7 0.00 0.00 0.00 15 1015.7
20260905213619 94 247 0.9 1.7 0.00 0.00 0.00 15 1015.9
20260905212718 94 237 7.0 10.4 0.00 0.00 0.00 16 1016.0
20260905211735 94 245 6.1 7.8 0.00 0.00 0.00 15 1016.2
20260905210820 94 200 8.7 16.5 0.00 0.00 0.00 15 1016.4
20260905205836 94 241 7.0 11.3 0.00 0.00 0.00 16 1016.4
20260905204918 94 212 7.8 11.3 0.00 0.00 0.00 16 1016.4
20260905203938 95 201 7.8 12.2 0.00 0.00 0.00 15 1016.6
20260905203018 94 187 3.5 6.1 0.00 0.00 0.00 15 1016.7
20260905202020 93 228 5.2 9.6 0.00 0.00 0.00 15 1016.7
20260905201019 93 256 5.2 7.8 0.00 0.00 0.00 16 1016.6
20260905200118 93 219 7.8 12.2 0.00 0.00 0.00 16 1016.7
20260905200037 94 223 8.7 14.8 0.00 0.00 0.00 15 1016.7
20260905195119 94 197 7.0 10.4 0.00 0.00 0.00 16 1016.9
20260905194218 94 220 3.5 5.2 0.00 0.00 0.00 17 1017.0
20260905193218 93 157 0.0 0.0 0.00 0.00 0.00 17 1017.1
20260905193118 93 154 0.9 3.5 0.00 0.00 0.00 17 1017.1
20260905192120 93 178 2.6 3.5 0.00 0.00 0.00 16 1017.2
20260905192019 93 127 3.5 7.0 0.00 0.00 0.00 16 1017.2
20260905191036 91 114 1.7 3.5 0.00 0.00 0.00 17 1017.4
20260905190919 91 133 0.9 3.5 0.00 0.00 0.00 17 1017.4
20260905184934 92 157 3.5 4.3 0.00 0.00 0.00 17 1017.8
20260905183018 93 105 2.6 5.2 0.00 0.00 0.00 17 1018.0
20260905181120 90 85 0.9 4.3 0.00 0.00 0.00 17 1018.2
20260905180218 91 2 0.9 4.3 0.00 0.00 0.00 16 1018.2
20260905175220 91 84 2.6 3.5 0.00 0.00 0.00 17 1018.2
20260905174222 89 169 0.9 1.7 0.00 0.00 0.00 18 1018.2
20260905173220 89 162 0.9 2.6 0.00 0.00 0.00 18 1018.3
20260905172220 86 322 0.9 1.7 0.00 0.00 0.00 21 1018.4
20260905171219 86 202 0.0 0.0 0.00 0.00 0.00 21 1018.4
20260905170217 85 222 3.5 3.5 0.00 0.00 0.00 21 1018.4
20260905165234 84 247 0.9 2.6 0.00 0.00 0.00 22 1018.5
20260905163233 82 202 0.0 1.7 0.00 0.00 0.00 23 1018.5
20260905162233 82 216 1.7 3.5 0.00 0.00 0.00 23 1018.5
20260905161220 81 167 0.9 3.5 0.00 0.00 0.00 24 1018.5
20260905160220 80 204 0.9 1.7 0.00 0.00 0.00 24 1018.5
20260905155318 79 225 0.9 1.7 0.00 0.00 0.00 23 1018.5
20260905154318 77 247 0.0 0.0 0.00 0.00 0.00 25 1018.5
20260905154235 77 247 0.0 0.9 0.00 0.00 0.00 25 1018.5
20260905153218 77 270 0.0 0.9 0.00 0.00 0.00 26 1018.5
20260905152234 77 247 0.0 0.0 0.00 0.00 0.00 29 1018.7
20260905151333 75 247 0.0 0.0 0.00 0.00 0.00 30 1018.5
20260905145435 72 247 0.0 0.0 0.00 0.00 0.00 32 1018.6
20260905144435 70 247 0.0 0.0 0.00 0.00 0.00 33 1018.8
20260905143534 68 247 0.0 0.0 0.00 0.00 0.00 34 1018.8
20260905141519 64 247 0.0 0.0 0.00 0.00 0.00 37 1018.8
20260905140534 62 247 0.9 3.5 0.00 0.00 0.00 44 1018.8
20260905135517 61 22 0.0 0.0 0.00 0.00 0.00 46 1018.5
20260905134536 60 22 0.0 0.0 0.00 0.00 0.00 45 1018.2
20260905133618 60 22 0.9 2.6 0.00 0.00 0.00 44 1018.1
20260905132619 61 22 0.0 0.0 0.00 0.00 0.00 42 1018.0
20260905131717 61 112 0.0 0.0 0.00 0.00 0.00 39 1017.8
20260905130720 61 107 0.0 0.0 0.00 0.00 0.00 41 1017.9
20260905130635 61 67 0.0 0.0 0.00 0.00 0.00 41 1017.8
20260905125620 62 290 0.9 4.3 0.00 0.00 0.00 39 1017.7
20260905124716 63 22 1.7 2.6 0.00 0.00 0.00 38 1017.5
20260905123719 63 315 0.0 0.9 0.00 0.00 0.00 38 1017.7
20260905121718 63 292 2.6 4.3 0.00 0.00 0.00 38 1017.4
20260905120734 62 315 0.9 1.7 0.00 0.00 0.00 42 1017.4
20260905115733 62 355 0.9 1.7 0.00 0.00 0.00 43 1017.4
20260905114819 62 22 1.7 2.6 0.00 0.00 0.00 44 1017.2
20260905113818 62 22 0.0 0.0 0.00 0.00 0.00 42 1017.2
20260905112818 62 247 0.9 1.7 0.00 0.00 0.00 42 1017.1
20260905111916 63 45 0.0 0.9 0.00 0.00 0.00 42 1017.1
20260905110934 63 45 0.9 1.7 0.00 0.00 0.00 41 1016.9
20260905105935 63 315 0.0 0.0 0.00 0.00 0.00 41 1017.1
20260905104934 64 315 0.0 0.0 0.00 0.00 0.00 39 1017.1
20260905103918 64 315 0.0 0.0 0.00 0.00 0.00 37 1017.0
20260905102919 64 112 0.0 0.0 0.00 0.00 0.00 39 1017.0
20260905100934 66 112 0.0 0.0 0.00 0.00 0.00 34 1017.0
20260905094032 66 292 0.0 0.0 0.00 0.00 0.00 35 1016.8
20260905093037 65 292 0.0 0.9 0.00 0.00 0.00 39 1016.6
20260905092019 65 202 0.0 0.0 0.00 0.00 0.00 38 1016.5
20260905091034 66 225 0.0 0.0 0.00 0.00 0.00 38 1016.5
20260905090036 66 112 0.0 0.0 0.00 0.00 0.00 37 1016.6
20260905085116 67 112 0.0 0.9 0.00 0.00 0.00 35 1016.4
20260905083216 66 337 0.0 0.0 0.00 0.00 0.00 39 1016.6
20260905082217 66 337 0.0 0.0 0.00 0.00 0.00 39 1016.5
20260905081233 67 337 0.0 0.0 0.00 0.00 0.00 38 1016.4
20260905080235 67 337 0.9 0.9 0.00 0.00 0.00 36 1016.5
20260905075320 68 315 0.0 0.0 0.00 0.00 0.00 35 1016.4
20260905074416 68 290 0.9 1.7 0.00 0.00 0.00 35 1016.3
20260905073418 68 22 0.0 0.9 0.00 0.00 0.00 37 1016.1
20260905072515 69 22 0.0 0.0 0.00 0.00 0.00 35 1016.1
20260905070617 69 22 0.0 0.0 0.00 0.00 0.00 36 1015.7
20260905065632 70 22 0.0 0.0 0.00 0.00 0.00 34 1015.7
20260905064616 71 22 0.0 0.0 0.00 0.00 0.00 32 1015.6
20260905063632 72 292 0.0 0.0 0.00 0.00 0.00 30 1015.5
20260905062719 72 292 0.0 0.9 0.00 0.00 0.00 29 1015.5
20260905061717 71 22 1.7 2.6 0.00 0.00 0.00 31 1015.3
20260905060816 72 283 0.9 2.6 0.00 0.00 0.00 30 1015.4
20260905060733 72 274 1.7 2.6 0.00 0.00 0.00 29 1015.2
20260905055743 72 337 0.9 0.9 0.00 0.00 0.00 30 1015.1
20260905054828 72 292 0.0 0.0 0.00 0.00 0.00 32 1015.1
20260905053844 72 297 0.0 0.9 0.00 0.00 0.00 29 1015.0
20260905053728 72 15 0.0 0.0 0.00 0.00 0.00 29 1014.9
20260905052728 73 22 0.0 0.0 0.00 0.00 0.00 30 1015.2
20260905051745 74 90 0.0 0.0 0.00 0.00 0.00 28 1014.9
20260905050728 76 90 0.0 0.0 0.00 0.00 0.00 25 1014.9
20260905045744 75 90 0.0 0.9 0.00 0.00 0.00 25 1014.6
20260905044825 75 90 0.0 1.7 0.00 0.00 0.00 26 1014.5
20260905043843 75 333 0.0 0.0 0.00 0.00 0.00 28 1014.7
20260905042826 75 315 1.7 1.7 0.00 0.00 0.00 30 1014.6
20260905041844 76 315 0.0 0.0 0.00 0.00 0.00 28 1014.5
20260905040926 77 315 0.0 0.0 0.00 0.00 0.00 26 1014.4
20260905035927 78 315 0.0 0.0 0.00 0.00 0.00 24 1014.3
20260905034944 80 112 0.0 0.0 0.00 0.00 0.00 22 1014.1
20260905034843 80 112 0.0 0.0 0.00 0.00 0.00 21 1014.2
20260905033928 80 112 0.0 0.9 0.00 0.00 0.00 22 1014.1
20260905033027 81 202 0.0 0.0 0.00 0.00 0.00 21 1014.1
20260905032026 82 202 0.0 0.0 0.00 0.00 0.00 19 1013.9
20260905030127 83 225 0.0 0.0 0.00 0.00 0.00 19 1013.6